Simultaneous Nadir Overpasses (SNOs) Predictions

Prediction of SNOs between FY3D and TERRA Satellite Orbit:

Table of predicted SNOs for the next 14.0 days since TLE Epoch: 5/27/2023
Index Date (FY3D) Time (FY3D) Lat,Lon (FY3D) SZA (FY3D ) Date (TERRA) Time (TERRA) Lat,Lon (TERRA) SZA (TERRA ) Distance(km) Time Diff (sec)
1 05/27/2023 13:30:14 73.44, -22.64 52.04 05/27/2023 13:30:53 73.46, -22.68 52.05 2.36 39
2 05/27/2023 14:20:58 -73.38, 144.81 128.03 05/27/2023 14:20:18 -73.35, 144.76 128.06 3.39 40
3 05/30/2023 01:34:17 -73.45, -23.63 128.36 05/30/2023 01:34:56 -73.46, -23.70 128.34 2.90 39
4 05/30/2023 02:25:02 73.39, 143.80 51.59 05/30/2023 02:24:19 73.38, 143.78 51.57 1.84 43
5 06/01/2023 13:38:21 73.47, -24.66 51.31 06/01/2023 13:38:57 73.46, -24.73 51.30 2.40 36
6 06/01/2023 14:29:05 -73.40, 142.80 128.77 06/01/2023 14:28:21 -73.42, 142.84 128.74 2.92 44
7 06/04/2023 01:42:24 -73.48, -25.66 129.00 06/04/2023 01:42:59 -73.50, -25.69 128.98 2.39 35
8 06/04/2023 02:33:08 73.43, 141.76 50.95 06/04/2023 02:32:20 73.45, 141.86 50.96 3.74 48
9 06/06/2023 13:46:27 73.52, -26.73 50.76 06/06/2023 13:46:58 73.49, -26.73 50.74 2.47 31
10 06/06/2023 14:37:11 -73.44, 140.75 129.32 06/06/2023 14:36:23 -73.42, 140.77 129.34 2.96 48
11 06/09/2023 01:50:30 -73.53, -27.75 129.46 06/09/2023 01:51:00 -73.51, -27.74 129.49 3.12 30
12 06/09/2023 02:41:14 73.44, 139.78 50.45 06/09/2023 02:40:22 73.44, 139.79 50.45 0.24 52



Historial Predications of SNOs between FY3D and TERRA
